Regional Weather Roundup
Issued by NWS

Home | Current Version | Previous Version | Graphics & Text | Print | Product List | Glossary On
Versions: 1 2 3 4 5 6 7 8 9 10 11 12 13 14 15 16 17 18 19 20 21 22 23 24 25 26 27 28 29 30 31 32 33 34 35 36 37 38 39 40 41 42 43 44 45 46 47 48 49 50
000
ASUS43 KLMK 172210
RWRKY
KENTUCKY REGIONAL WEATHER ROUNDUP
NATIONAL WEATHER SERVICE LOUISVILLE KY
500 PM EST SUN DEC 17 2017

NOTE "FAIR" INDICATES FEW OR NO CLOUDS BELOW 12,000 FEET
WITH NO SIGNIFICANT WEATHER AND/OR OBSTRUCTIONS TO VISIBILITY.

KYZ001>023-026-027-061>063-070>075-172300-
WESTERN AND SOUTH CENTRAL KENTUCKY

CITY           SKY/WX    TMP DP  RH WIND       PRES   REMARKS
PADUCAH        CLOUDY    47  41  80 SE5       30.08S
HENDERSON      CLOUDY    44  40  85 SE6       30.09F
OWENSBORO      CLOUDY    43  41  93 SE8       30.11S FOG
HOPKINSVILLE   CLOUDY    44  44  99 CALM      30.09S FOG
BOWLING GREEN  CLOUDY    45  42  89 SE5       30.12S
GLASGOW        CLOUDY    44  39  83 S3        30.12R
$$

KYZ024-025-028>034-038-045-046-053-172300-
NORTH CENTRAL KENTUCKY

CITY           SKY/WX    TMP DP  RH WIND       PRES   REMARKS
LOUISVILLE/SDF CLOUDY    46  37  71 S9        30.11S
LOUISVILLE/LOU CLOUDY    45  39  79 S9        30.11F
FORT KNOX      CLOUDY    42  40  94 S6        30.10S
$$

KYZ035>037-039>044-047>052-055>060-089>105-172300-
NORTHEAST KENTUCKY

CITY           SKY/WX    TMP DP  RH WIND       PRES   REMARKS
LEXINGTON      CLOUDY    41  37  86 CALM      30.13S FOG
COVINGTON      CLOUDY    45  34  65 S6        30.08F
FRANKFORT      CLOUDY    42  37  82 SW5       30.12R HAZE
$$

KYZ054-064>069-076>088-106>120-172300-
SOUTHEAST KENTUCKY

CITY           SKY/WX    TMP DP  RH WIND       PRES   REMARKS
JACKSON        LGT RAIN  40  36  86 CALM      30.13F
LONDON         CLOUDY    42  35  76 CALM      30.13F
SOMERSET       CLOUDY    43  34  70 S5        30.13F
MIDDLESBORO    CLOUDY    42  35  75 SE5       30.15F
MONTICELLO     CLOUDY    44  36  73 E8        30.13F
$$





USA.gov is the U.S. government's official web portal to all federal, state and local government web resources and services.